Regional Weather Roundup
Issued by NWS

Home | Current Version | Previous Version | Graphics & Text | Print | Product List | Glossary Off
Versions: 1 2 3 4 5 6 7 8 9 10 11 12 13 14 15 16 17 18 19 20 21 22 23 24 25 26 27 28 29 30 31 32 33 34 35 36 37 38 39 40 41 42 43 44 45 46 47 48 49 50

188
ASUS43 KFSD 291710
RWRSD

WEATHER ROUNDUP FOR SOUTH DAKOTA
NATIONAL WEATHER SERVICE SIOUX FALLS SD
1200 PM CDT FRI JUL 29 2016

NOTE: "FAIR" INDICATES FEW OR NO CLOUDS BELOW 12,000 FEET WITH NO
SIGNIFICANT WEATHER AND/OR OBSTRUCTIONS TO VISIBILITY.


SDZ001>005-009-010-012>017-291800-
NORTHWEST AND NORTH CENTRAL SOUTH DAKOTA

CITY           SKY/WX    TMP DP  RH WIND       PRES   REMARKS
BUFFALO          N/A     72  60  66 VRB5      30.04F
FAITH            N/A     74  56  53 SE9       30.09F
MOBRIDGE       CLOUDY    79  58  48 S7        30.06S
$$

SDZ012>016-024>037-041>051-057-063-072>074-291800-
SOUTHWEST AND SOUTH CENTRAL SOUTH DAKOTA

CITY           SKY/WX    TMP DP  RH WIND       PRES   REMARKS
RAPID CTY ARPT SUNNY     76  58  53 SE12      30.11S
PIERRE         MOSUNNY   76  60  57 SE10      30.08S
CUSTER         MOSUNNY   72  52  49 VRB6      30.20F
ELLSWORTH AFB  SUNNY     76  58  53 E3        30.10
PHILIP         MOSUNNY   72  62  71 SE8       30.10S
PINE RIDGE     SUNNY     77  58  51 VRB6      30.12S
WINNER         PTSUNNY   73  62  68 VRB6      30.12S
$$

SDZ004>011-016>023-039-040-291800-
NORTHEAST SOUTH DAKOTA

CITY           SKY/WX    TMP DP  RH WIND       PRES   REMARKS
ABERDEEN       NOT AVBL
WATERTOWN      CLOUDY    75  55  49 VRB5      30.12R
BROOKINGS      SUNNY     73  56  54 E7        30.12S
SISSETON         N/A     75  62  64 VRB6      30.09S
$$

SDZ017-020-022-023-036>040-048>070-291800-
SOUTHEAST SOUTH DAKOTA

CITY           SKY/WX    TMP DP  RH WIND       PRES   REMARKS
SIOUX FALLS    MOSUNNY   74  58  57 NE9       30.10F
HURON          MOSUNNY   77  54  44 E8        30.10S
CHAMBERLAIN    MOSUNNY   79  59  49 SE6       30.10F
MITCHELL       SUNNY     76  56  49 VRB6      30.11S
YANKTON        MOSUNNY   73  54  49 NE9       30.09S
$$

ABBREVIATIONS USED IN REMARKS
   TC - TEMPERATURE IN CELSIUS
  WCI - WIND CHILL INDEX
   HX - HEAT INDEX
  VSB - VISIBILITY





USA.gov is the U.S. government's official web portal to all federal, state and local government web resources and services.